Regional Weather Roundup
Issued by NWS Charleston, SC

Current Version | Previous Version | Text Only | Print | Product List | Glossary Off
Versions: 1 2 3 4 5 6 7 8 9 10 11 12 13 14 15 16 17 18 19 20 21 22 23 24 25 26 27 28 29 30 31 32 33 34 35 36 37 38 39 40 41 42 43 44 45 46 47 48 49 50
000 ASUS42 KCHS 230425 RWRCHS REGIONAL WEATHER ROUNDUP NATIONAL WEATHER SERVICE CHARLESTON SC 1100 PM EST SAT NOV 22 2014 NOTE: "FAIR" INDICATES FEW OR NO CLOUDS BELOW 12,000 FEET WITH NO SIGNIFICANT WEATHER AND/OR OBSTRUCTIONS TO VISIBILITY. NOT ALL STATIONS ARE QUALITY CONTROLLED BY THE NATIONAL WEATHER SERVICE. USE DATA WITH CAUTION...ESPECIALLY DEWPOINT OBSERVATIONS. SCZ027-030-031-034>040-042>050-230500- ...SOUTHEAST SOUTH CAROLINA... CITY SKY/WX TMP DP RH WIND PRES REMARKS N CHARLESTON CLOUDY 54 52 93 NE6 30.29S WATERFRONT PRK N/A 57 N/A N/A NE13 N/A MOUNT PLEASANT FAIR 57 57 100 E6 30.28F JOHNS ISLAND PTCLDY 57 57 100 NE7 30.28F PINOPOLIS N/A 54 52 94 E3 30.23S MONCKS CORNER CLOUDY 54 54 100 E3 30.28F SUMMERVILLE MOCLDY 52 52 100 CALM 30.29F BEAUFORT MCAS CLOUDY 57 54 89 NE5 30.27F BEAUFORT ARPT LGT RAIN 55 55 100 NE6 30.25F HILTON HEAD IS CLOUDY 61 57 88 NE8 30.26F WALTERBORO CLOUDY 54 N/A N/A NE3 30.29F ALLENDALE LGT RAIN 54 52 94 VRB3 30.26F ...SOUTHERN MIDLANDS AND PEE DEE... CITY SKY/WX TMP DP RH WIND PRES REMARKS GEORGETOWN NOT AVBL KINGSTREE NOT AVBL ORANGEBURG CLOUDY 51 44 77 E6 30.29F BARNWELL CLOUDY 55 48 76 E7 30.29F AIKEN CLOUDY 52 34 50 CALM 30.31F MANNING NOT AVBL COLUMBIA CLOUDY 50 34 54 E5 30.29F SUMTER CLOUDY 44 38 79 E1 30.29F FLORENCE MOCLDY 43 37 79 NE3 30.32F MYRTLE BEACH PTCLDY 50 46 87 N3 N/A N MYRTLE BEACH CLEAR 47 46 97 NE3 30.31F $$ GAZ063-065-086>088-099>101-113>116-118-119-134>141-150-230500- ...SOUTHEAST GEORGIA... CITY SKY/WX TMP DP RH WIND PRES REMARKS SAVANNAH ARPT CLOUDY 59 54 83 N5 30.26S HUNTER AAF CLOUDY 59 57 94 NE8 30.22F FORT STEWART DRIZZLE 57 55 94 NE7 30.21F STATESBORO NOT AVBL SYLVANIA CLOUDY 58 55 89 E9 30.25F CLAXTON CLOUDY 59 59 100 E7 30.23F ...CSRA...CENTRAL AND FAR SOUTHEAST GEORGIA... CITY SKY/WX TMP DP RH WIND PRES REMARKS THOMSON CLOUDY 48 48 100 E3 30.29F AUGUSTA-BUSH CLOUDY 49 44 83 CALM 30.28F AUGUSTA-DANIEL CLOUDY 56 36 47 CALM 30.28S SWAINSBORO CLOUDY 61 57 88 E6 30.22F VIDALIA CLOUDY 57 55 94 E7 30.22F HAZLEHURST RAIN 58 58 99 E7 30.19F ALMA LGT RAIN 59 57 93 NE8 30.18F WAYCROSS CLOUDY 63 62 97 E7 30.17S JESUP LGT RAIN 61 61 100 E8 30.19F BAXLEY CLOUDY 59 57 94 E7 30.19F BRUNSWICK N/A 63 59 88 NE5 30.20F SAINT SIMONS CLOUDY 63 60 90 E13 30.19F $$ SCZ027-028-034-036>038-045-046-048>050-GAZ119-141-230500- ...LAKE AND SUPPLEMENTAL COASTAL OBSERVATIONS... STATION/POSITION TIME TEMP WIND PRES WAVE SWELL AIR SEA DIR/SP/G HT/PER HT/PER/DIR (UTC) (F) (DEG/KT/KT) (MB) (FT/S) (FT/S/D) UPR LAKE MARION NOT AVBL WINYAH BAY 0400 56 50/ 6 1026.0S LAKE MURRAY 0400 52 80/ 7/ 8 1025.1F ACE BASIN NERRS 0400 56 50/ 2 1025.0S FORT PULASKI 0400 58 40/ 11/ 14 1024.8R SAPELO ISLAND NOT AVBL $$ ANZ835-935-AMZ111-154-330-350-352-354-370-450-454-472-230500- ...C-MAN AND BUOY OBSERVATIONS... STATION/POSITION TIME TEMP WIND PRES WAVE SWELL AIR SEA DIR/SP/G HT/PER HT/PER/DIR (UTC) (F) (DEG/KT/KT) (MB) (FT/S) (FT/S/D) FOLLY BEACH CMAN 0400 57 40/ 13/ 14 1025.5F BUOY 41004 0400 70 75 110/ 16/ 19 1024.7F 5/ 6 3/ 8 BUOY 41008 0400 68 64 100/ 12/ 14 1023.1S 6/ 6 5/120/ 8 CAPERS NEARSHORE 0300 58 60/ 12/ 16 N/A FRIPP NEARSHORE NOT AVBL STATION/POSITION TIME TEMP WIND PRES WAVE SWELL AIR SEA DIR/SP/G HT/PER HT/PER/DIR (UTC) (F) (DEG/KT/KT) (MB) (FT/S) (FT/S/D) 5E ST. MARYS GA 0400 62 N/A 6/ 8 FRYING PAN BUOY 0400 65 62 130/ 10/ 12 1026.9F 3/ 9 2/130/ 9 BUOY 41025 0400 63 210/ 10/ 14 1028.7F 3/ 8 3/ 70/ 8 CAPE LOOKOUT NC 0400 50 30/ 8/ 10 1027.4F BUOY 41002 0331 67 73 130/ 14/ 16 1027.5F 5/ 8 3/ 60/ 8 BUOY 41010 0400 74 78 110/ 23/ 27 1022.2F 9/ 9 5/110/ 9 ST AUGUSTINE FL 0400 68 120/ 15/ 17 1021.6F $$

USA.gov is the U.S. government's official web portal to all federal, state and local government web resources and services.